Flag for Germany Weather past 2 weeks in Bonn, North Rhine-Westphalia, Germany

Now
62 °F

Partly sunny.


Feels Like: 62 °F
Forecast: 62 / 83 °F
Wind: 2 mph from South

Location: Bonn-Hangelar

Current Time: Aug 1, 2014 at 7:24:22 AM

Latest Report: Aug 1, 2014 at 7:00 AM


Visibility: 25 mi

Pressure: 29.88 "Hg

Humidity: 77%

Dew point: 54 °F

Location of BonnLocation

Historic Weather in Bonn — Graph

°F

Bonn temperature yesterday

Maximum temperature yesterday: 76 °F (at 6:00 PM)
Minimum temperature yesterday: 53 °F (at 6:00 AM)
Average temperature yesterday: 65 °F

Past Weeks' High & Low Weather Summary

 TemperatureHumidityPressure
High93 °F (Jul 19, 5:00 PM)100% (Jul 22, 10:00 AM)30.17 "Hg (Jul 22, 10:00 AM)
Low53 °F (Jul 31, 6:00 AM)23% (Jul 19, 3:00 PM)29.78 "Hg (Jul 20, 4:00 AM)
Average69 °F75%29.94 "Hg
* Reported Jul 17 6:00 AM — Aug 1 6:00 AM, Bonn, Weather by CustomWeather, © 2014

Note: Actual official high and low records may vary slightly from our data, if they occured in-between our weather recording intervals... More about our weather records

Advertising

Bonn weather history for previous 24 hours

 ConditionsComfort  
Time TempWeatherWind HumidityBarometerVisibility
6:00 AM
Aug 1
61 °FScattered clouds.3 mph77%29.89 "Hg25 mi
5:00 AM61 °FPassing clouds.3 mph78%29.90 "Hg18 mi
4:00 AM62 °FClear.3 mph77%29.90 "Hg19 mi
3:00 AM64 °FPassing clouds.1 mph71%29.90 "Hg16 mi
2:00 AM63 °FOvercast.3 mph77%29.91 "Hg12 mi
1:00 AM63 °FOvercast.2 mph79%29.92 "Hg11 mi
12:00 AM64 °FOvercast.2 mph74%29.92 "Hg12 mi
11:00 PM
Jul 31
67 °FOvercast.1 mph66%29.92 "Hg16 mi
10:00 PM69 °FOvercast.1 mph63%29.92 "Hg17 mi
9:00 PM71 °FPartly sunny.1 mph63%29.92 "Hg25 mi
8:00 PM75 °FScattered clouds.1 mph45%29.91 "Hg25 mi
7:00 PM75 °FScattered clouds.2 mph46%29.91 "Hg25 mi
6:00 PM76 °FScattered clouds.3 mph47%29.92 "Hg22 mi
5:00 PM76 °FScattered clouds.3 mph45%29.93 "Hg25 mi
4:00 PM75 °FScattered clouds.3 mph55%29.95 "Hg25 mi
3:00 PM74 °FPassing clouds.1 mph55%29.96 "Hg25 mi
2:00 PM71 °FPassing clouds.2 mph58%29.98 "Hg25 mi
1:00 PM70 °FPassing clouds.1 mph61%29.99 "Hg25 mi
12:00 PM68 °FPassing clouds.2 mph62%30.01 "Hg19 mi
11:00 AM65 °FPassing clouds.1 mph68%30.02 "Hg19 mi
10:00 AM63 °FPassing clouds.1 mph70%30.02 "Hg19 mi
9:00 AM60 °FSunny.1 mph80%30.03 "Hg12 mi
8:00 AM58 °FSunny.1 mph86%30.03 "Hg12 mi
7:00 AM54 °FSunny.2 mph94%30.03 "Hg9 mi
Weather by CustomWeather, © 2014

See weather overviewHow to use our weather pages